Location: Cadenet
(43.7345°N, 5.3750°E)
Time: 05:03:29
(UTC+00:00)

STARLINK-1099 - Pass Details

Date: 18 February 2020
Orbit: 548 x 551 km, 53.0° (Epoch: 29 March)

Event Time Altitude Azimuth Distance (km) Brightness Sun altitude
Exits shadow 05:04:43 12° 209° (SSW) 1,704 5.8 -16.7°
Maximum altitude 05:08:22 45° 138° (SE) 754 4.6 -16.1°
Drops below altitude 10° 05:12:19 10° 65° (ENE) 1,823 7.3 -15.4°
Sets 05:14:37 0° 59° (ENE) 2,720 8.2 -14.9°
